Altoona, PA

12:20 AM EDT on August 24, 2017 (GMT -0400)
Altoona-Blair County

Weather History for KAOO - October, 2012

Change the Weather History Date:

Sunday, October 14, 2012

  Actual Average Record
Temperature  
Mean Temperature 60 °F 52 °F  
Max Temperature 72 °F 62 °F 80 °F (1954)
Min Temperature 50 °F 41 °F 26 °F (1988)
Degree Days  
Heating Degree Days 4 14  
Month to date heating degree days 164  
Since 1 July heating degree days 335  
Cooling Degree Days 0 0  
Month to date cooling degree days 0  
Year to date cooling degree days 522  
Growing Degree Days 10 (Base 50)    
Moisture  
Dew Point 47 °F    
Average Humidity 64    
Maximum Humidity 74    
Minimum Humidity 53    
Precipitation  
Precipitation 0.00 in 0.08 in 1.65 in (1955)
Month to date precipitation 1.18  
Year to date precipitation 25.56  
Sea Level Pressure  
Sea Level Pressure 30.03 in    
Wind  
Wind Speed 6 mph (SSW)    
Max Wind Speed 15 mph    
Max Gust Speed 26 mph    
Visibility 10 miles    
Events      
T = Trace of Precipitation, MM = Missing Value Source: NWS Daily Summary

Daily Weather History Graph

Daily Weather History Graph

Search for Another Location

Airport or City:

Trip Planner

Search our weather history database for the weather conditions in past years. The results will help you decide how hot, cold, wet, or windy it might be!

Date:

Astronomy

Oct. 14, 2012 Rise Set
Actual Time 7:23 AM EDT 6:34 PM EDT
Civil Twilight 6:56 AM EDT 7:01 PM EDT
Nautical Twilight 6:24 AM EDT 7:33 PM EDT
Astronomical Twilight 5:53 AM EDT 8:04 PM EDT
Moon 6:20 AM EDT (10/14) 5:52 PM EDT (10/14)
Length of Visible Light 12h 05m
Length of Day
11h 10m
Waning Crescent, 1% of the Moon is Illuminated
Oct 14
Waning Crescent
Oct 15
New
Oct 21
First Quarter
Oct 29
Full
Nov 6
Last Quarter

Hourly Weather History & Observations

Time (EDT) Temp. Dew Point Humidity Pressure Visibility Wind Dir Wind Speed Gust Speed Precip Events Conditions
1:53 AM 51.1 °F 39.9 °F 66% 30.17 in 10.0 mi SSW 5.8 mph - N/A   Scattered Clouds
2:53 AM 51.1 °F 39.9 °F 66% 30.16 in 10.0 mi Calm Calm - N/A   Overcast
3:53 AM 51.1 °F 39.9 °F 66% 30.15 in 10.0 mi Calm Calm - N/A   Overcast
4:53 AM 51.1 °F 41.0 °F 68% 30.13 in 10.0 mi SW 3.5 mph - N/A   Overcast
5:53 AM 52.0 °F 42.1 °F 69% 30.12 in 10.0 mi SW 5.8 mph - N/A   Overcast
6:53 AM 50.0 °F 42.1 °F 74% 30.13 in 10.0 mi Calm Calm - N/A   Mostly Cloudy
7:53 AM 51.1 °F 43.0 °F 74% 30.15 in 10.0 mi SSW 4.6 mph - N/A   Overcast
8:53 AM 53.1 °F 44.1 °F 71% 30.15 in 10.0 mi Calm Calm - N/A   Overcast
9:53 AM 57.0 °F 46.0 °F 67% 30.14 in 10.0 mi SW 4.6 mph - N/A   Mostly Cloudy
10:53 AM 61.0 °F 48.0 °F 62% 30.12 in 10.0 mi SW 8.1 mph - N/A   Overcast
11:53 AM 64.0 °F 50.0 °F 60% 30.09 in 10.0 mi SSW 10.4 mph - N/A   Overcast
12:53 PM 66.9 °F 51.1 °F 57% 30.05 in 10.0 mi SW 12.7 mph - N/A   Overcast
1:53 PM 70.0 °F 53.1 °F 55% 30.02 in 10.0 mi SSW 11.5 mph - N/A   Scattered Clouds
2:53 PM 71.1 °F 53.1 °F 53% 29.98 in 10.0 mi South 11.5 mph 21.9 mph N/A   Clear
4:53 PM 68.0 °F 52.0 °F 56% 29.94 in 10.0 mi South 11.5 mph 26.5 mph N/A   Clear
5:53 PM 66.0 °F 52.0 °F 60% 29.94 in 10.0 mi South 10.4 mph 18.4 mph N/A   Clear
6:53 PM 63.0 °F 51.1 °F 65% 29.93 in 10.0 mi SSW 8.1 mph - N/A   Clear
7:53 PM 63.0 °F 51.1 °F 65% 29.91 in 10.0 mi SSW 8.1 mph - N/A   Clear
8:53 PM 63.0 °F 51.1 °F 65% 29.90 in 10.0 mi Variable 5.8 mph - N/A   Clear
9:53 PM 63.0 °F 51.1 °F 65% 29.87 in 10.0 mi Variable 5.8 mph - N/A   Clear
10:53 PM 63.0 °F 51.1 °F 65% 29.86 in 10.0 mi SSW 15.0 mph 21.9 mph N/A   Clear
11:53 PM 64.0 °F 51.1 °F 63% 29.82 in 10.0 mi South 13.8 mph 23.0 mph N/A   Overcast